Regional Weather Roundup
Issued by NWS

Home | Current Version | Previous Version | Graphics & Text | Print | Product List | Glossary On
Versions: 1 2 3 4 5 6 7 8 9 10 11 12 13 14 15 16 17 18 19 20 21 22 23 24 25 26 27 28 29 30 31 32 33 34 35 36 37 38 39 40 41 42 43 44 45 46 47 48 49 50
000
ASUS43 KLSX 202357
RWRMO

WEATHER SUMMARY FOR MISSOURI
NATIONAL WEATHER SERVICE SPRINGFIELD MO
700 PM CDT WED SEP 20 2017

NOTE: "FAIR" INDICATES FEW OR NO CLOUDS BELOW 12,000 FEET WITH NO
       SIGNIFICANT WEATHER AND/OR OBSTRUCTIONS TO VISIBILITY.
       CURRENT SKY AND/OR WEATHER CONDITIONS ARE NOT AVAILABLE FOR
       CHILLICOTHE AND FARMINGTON.

MOZ001>031-035>038-043-044-053-054-210100-
...NORTHERN AND WESTERN MISSOURI...

CITY           SKY/WX    TMP DP  RH WIND       PRES   REMARKS
KANSAS CTY INT MOCLDY    83  75  77 SE3       29.82R HX  90
6HR MIN TEMP:  83; 6HR MAX TEMP:  87;

LEE`S SUMMIT   CLOUDY    86  75  69 S6        29.83R HX  95
6HR MIN TEMP:  84; 6HR MAX TEMP:  90;

ST JOSEPH      MOCLDY    84  74  71 S6        29.81R HX  91
6HR MIN TEMP:  84; 6HR MAX TEMP:  90;

CHILLICOTHE      N/A     83  78  85 CALM      29.83R HX  93
6HR MIN TEMP:  83; 6HR MAX TEMP:  89;


$$
MOZ066>068-077>081-088>096-101>105-210100-
...SOUTHWEST MISSOURI...

CITY           SKY/WX    TMP DP  RH WIND       PRES   REMARKS
SPRINGFIELD    CLEAR     85  70  60 S8        29.87S
6HR MIN TEMP:  85; 6HR MAX TEMP:  93;

JOPLIN         CLEAR     87  72  60 SE8G17    29.84R HX  93
6HR MIN TEMP:  87; 6HR MAX TEMP:  92;


$$
MOZ032>034-039>042-045>050-055>058-069>072-210100-
...CENTRAL MISSOURI...

CITY           SKY/WX    TMP DP  RH WIND       PRES   REMARKS
COLUMBIA       NOT AVBL
JEFFERSON CITY CLEAR     88  69  53 SE8       29.84R HX  92
ROLLA          CLEAR     85  67  54 S7        29.90S
6HR MIN TEMP:  85; 6HR MAX TEMP:  94;

SEDALIA        CLEAR     85  75  72 S7        29.85R HX  93
6HR MIN TEMP:  85; 6HR MAX TEMP:  93;

WARRENSBURG    CLEAR     86  72  62 SE3       29.82S HX  92

$$
MOZ051-052-059>065-210100-
...EAST CENTRAL MISSOURI...

CITY           SKY/WX    TMP DP  RH WIND       PRES   REMARKS
ST LOUIS INTL  NOT AVBL

$$
MOZ072>076-082>087-097>100-106>115-210100-
...SOUTH CENTRAL AND SOUTHEAST MISSOURI...

CITY           SKY/WX    TMP DP  RH WIND       PRES   REMARKS
CAPE GIRARDEAU CLEAR     84  70  62 S8        29.92R
6HR MIN TEMP:  84; 6HR MAX TEMP:  93;

POPLAR BLUFF   CLEAR     85  70  60 S6        29.91S
6HR MIN TEMP:  85; 6HR MAX TEMP:  93;

WEST PLAINS    CLEAR     85  69  58 SE7       29.94R
6HR MIN TEMP:  85; 6HR MAX TEMP:  91;


$$



USA.gov is the U.S. government's official web portal to all federal, state and local government web resources and services.